Location: Six Mile Lake
(44.9000°N, 79.7170°W)
Time: 04:46:31
(UTC-04:00)

UKube-1 - Pass Details

Date: 04 July 2022
Orbit: 608 x 615 km, 98.4° (Epoch: 17 August)

Event Time Altitude Azimuth Distance (km) Brightness Sun altitude
Rises 22:08:23 0° 32° (NNE) 2,891 ? -9.0°
Reaches altitude 10° 22:11:32 10° 57° (ENE) 1,978 ? -9.4°
Maximum altitude 22:13:53 14° 91° (E) 1,699 ? -9.7°
Enters shadow 22:15:37 12° 117° (ESE) 1,850 ? -9.9°
